Change the Weather History Date:

Monday, August 12, 2013

  Actual Average Record
Temperature  
Mean Temperature 67 °F 70 °F  
Max Temperature 84 °F 88 °F 99 °F (1996)
Min Temperature 50 °F 53 °F 37 °F (2004)
Degree Days  
Heating Degree Days 0 1  
Month to date heating degree days 0 3  
Since 1 June heating degree days 72 155  
Since 1 July heating degree days 0 19  
Cooling Degree Days 2 6  
Month to date cooling degree days 62 76  
Year to date cooling degree days 385 321  
Since 1 June cooling degree days 375 317  
Growing Degree Days 16 (Base 50)    
Moisture  
Dew Point 44 °F    
Average Humidity 54    
Maximum Humidity 89    
Minimum Humidity 18    
Precipitation  
Precipitation T in 0.03 in 0.57 in (1966)
Month to date precipitation 0.60 0.41  
Year to date precipitation 9.10 8.64  
Snow  
Snow 0.00 in 0.00 in - ()
Month to date snowfall 0.0 0.0  
Since 1 June snowfall 0.0 0.1  
Since 1 July snowfall 0.0 0.0  
Snow Depth 0.00 in    
Sea Level Pressure  
Sea Level Pressure 30.05 in    
Wind  
Wind Speed 6 mph (SW)    
Max Wind Speed 20 mph    
Max Gust Speed 25 mph    
Visibility 10 miles    
Events Rain , Thunderstorm    
T = Trace of Precipitation, MM = Missing Value Source: NWS Daily Summary

Daily Weather History Graph

Daily Weather History Graph

Search for Another Location

Airport or City:

Trip Planner

Search our weather history database for the weather conditions in past years. The results will help you decide how hot, cold, wet, or windy it might be!

Date:

Astronomy

Aug. 12, 2013 Rise Set
Actual Time 6:09 AM MDT 8:11 PM MDT
Civil Twilight 5:38 AM MDT 8:42 PM MDT
Nautical Twilight 5:00 AM MDT 9:20 PM MDT
Astronomical Twilight 4:18 AM MDT 10:01 PM MDT
Moon 12:13 PM MDT (8/12) 10:55 PM MDT (8/12)
Length of Visible Light 15h 04m
Length of Day
14h 02m
Waxing Crescent, 32% of the Moon is Illuminated
Aug 12
Waxing Crescent
Aug 14
First Quarter
Aug 20
Full
Aug 28
Last Quarter
Sep 5
New

Hourly Weather History & Observations

Time (MDT) Temp. Dew Point Humidity Pressure Visibility Wind Dir Wind Speed Gust Speed Precip Events Conditions
12:53 AM 60.1 °F 51.1 °F 72% 30.01 in 10.0 mi ENE 10.4 mph - N/A   Clear
1:53 AM 55.9 °F 48.9 °F 77% 30.03 in 10.0 mi Calm Calm - N/A   Clear
2:53 AM 53.1 °F 48.0 °F 83% 30.02 in 10.0 mi WNW 4.6 mph - N/A   Clear
3:53 AM 55.9 °F 48.0 °F 75% 29.99 in 10.0 mi WSW 6.9 mph - N/A   Clear
4:53 AM 53.1 °F 48.0 °F 83% 30.00 in 10.0 mi Calm Calm - N/A   Clear
5:53 AM 51.1 °F 48.0 °F 89% 30.03 in 10.0 mi Calm Calm - N/A   Clear
6:53 AM 53.1 °F 50.0 °F 89% 30.05 in 10.0 mi Calm Calm - N/A   Clear
7:53 AM 62.1 °F 48.9 °F 62% 30.04 in 10.0 mi Calm Calm - N/A   Clear
8:53 AM 68.0 °F 46.9 °F 47% 30.03 in 10.0 mi SW 10.4 mph - N/A   Clear
9:53 AM 73.9 °F 45.0 °F 35% 30.01 in 10.0 mi SW 5.8 mph - N/A   Clear
10:53 AM 77.0 °F 44.1 °F 31% 30.01 in 10.0 mi WSW 8.1 mph - N/A   Clear
11:53 AM 80.1 °F 43.0 °F 27% 30.00 in 10.0 mi SSE 4.6 mph - N/A   Clear
12:53 PM 81.0 °F 42.1 °F 25% 29.99 in 10.0 mi Variable 5.8 mph - N/A   Clear
1:48 PM 80.6 °F 35.6 °F 20% 30.19 in 10.0 mi North - - N/A Thunderstorm Clear
1:53 PM 80.1 °F 37.0 °F 21% 30.01 in 10.0 mi North - - N/A Thunderstorm Clear
2:03 PM 80.6 °F 37.4 °F 21% 30.19 in 10.0 mi NW 3.5 mph - N/A   Clear
2:53 PM 79.0 °F 39.9 °F 25% 30.01 in 10.0 mi WNW 13.8 mph 23.0 mph N/A   Mostly Cloudy
3:53 PM 81.0 °F 37.0 °F 21% 29.98 in 10.0 mi NNW 10.4 mph - N/A   Clear
4:53 PM 82.9 °F 36.0 °F 19% 29.97 in 10.0 mi Variable 4.6 mph - N/A   Clear
5:53 PM 82.0 °F 36.0 °F 19% 29.97 in 10.0 mi WSW 3.5 mph - N/A   Clear
6:53 PM 75.0 °F 44.1 °F 33% 30.00 in 10.0 mi SSW 5.8 mph - N/A   Mostly Cloudy
7:53 PM 69.1 °F 44.1 °F 40% 30.00 in 10.0 mi WSW 5.8 mph - N/A   Partly Cloudy
8:53 PM 73.0 °F 41.0 °F 31% 30.01 in 10.0 mi SW 5.8 mph - 0.00 in   Overcast
9:05 PM 69.8 °F 44.6 °F 40% 30.21 in 10.0 mi Calm Calm - 0.00 in Rain , Thunderstorm Light Rain
9:20 PM 66.2 °F 53.6 °F 64% 30.20 in 10.0 mi Calm Calm - 0.00 in Rain Light Rain
9:36 PM 66.2 °F 48.2 °F 52% 30.22 in 10.0 mi ESE 11.5 mph - 0.00 in Thunderstorm Overcast
9:53 PM 66.9 °F 46.0 °F 47% 30.03 in 10.0 mi SE 18.4 mph 23.0 mph 0.00 in Thunderstorm Scattered Clouds
10:00 PM 66.2 °F 46.4 °F 49% 30.22 in 10.0 mi ESE 16.1 mph - N/A   Partly Cloudy
10:53 PM 64.9 °F 46.0 °F 50% 30.01 in 10.0 mi SSE 9.2 mph - N/A   Clear
11:53 PM 59.0 °F 45.0 °F 60% 30.00 in 10.0 mi West 5.8 mph - N/A   Clear